Meeandah, Australia

10:10 PM AEST on April 27, 2017 (GMT +1000)
Meeandah

Weather History for 94578 - September, 2013

Change the Weather History Date:

Wednesday, September 18, 2013

  Actual Average Record
Temperature  
Mean Temperature 68 °F -  
Max Temperature 83 °F 77 °F - ()
Min Temperature 54 °F 58 °F - ()
Cooling Degree Days 4    
Growing Degree Days 18 (Base 50)    
Moisture  
Dew Point 52 °F    
Average Humidity 57    
Maximum Humidity 94    
Minimum Humidity 14    
Precipitation  
Precipitation 0.00 in 0.10 in - ()
Sea Level Pressure  
Sea Level Pressure 29.77 in    
Wind  
Wind Speed 7 mph ()    
Max Wind Speed 18 mph    
Max Gust Speed -    
Visibility 12.2 miles    
Events      
T = Trace of Precipitation, MM = Missing Value Source: Averaged Metar Reports

Daily Weather History Graph

Daily Weather History Graph

Search for Another Location

Airport or City:

Trip Planner

Search our weather history database for the weather conditions in past years. The results will help you decide how hot, cold, wet, or windy it might be!

Date:

Astronomy

Sep. 18, 2013 Rise Set
Actual Time 5:42 AM AEST 5:41 PM AEST
Civil Twilight 5:18 AM AEST 6:05 PM AEST
Nautical Twilight 4:51 AM AEST 6:32 PM AEST
Astronomical Twilight 4:24 AM AEST 6:59 PM AEST
Moon 4:28 PM AEST (9/18) 4:23 AM AEST (9/18)
Length of Visible Light 12h 46m
Length of Day
11h 59m
Waxing Gibbous, 97% of the Moon is Illuminated
Sep 18
Waxing Gibbous
Sep 19
Full
Sep 27
Last Quarter
Oct 5
New
Oct 12
First Quarter

Hourly Weather History & Observations

Time (AEST) Temp. Dew Point Humidity Pressure Visibility Wind Dir Wind Speed Gust Speed Precip Events Conditions
12:00 AM 65 °F 48 °F 43% 29.74 in 19 mi NNE 3.5 mph - -   Partly Cloudy
12:00 AM 64.4 °F 48.2 °F 56% 29.74 in - NNE 3.5 mph - N/A   Clear
12:30 AM 64.4 °F 48.2 °F 56% 29.74 in - NNW 6.9 mph - N/A   Clear
1:00 AM 63 °F 49 °F 49% 29.74 in - NNW 3.5 mph - -  
1:00 AM 62.6 °F 48.2 °F 59% 29.74 in - NNW 3.5 mph - N/A   Clear
1:30 AM 64.4 °F 46.4 °F 52% 29.74 in - NNW 5.8 mph - N/A   Clear
2:00 AM 64.4 °F 48.2 °F 56% 29.74 in - West 5.8 mph - N/A   Clear
2:30 AM 60.8 °F 48.2 °F 63% 29.74 in - West 4.6 mph - N/A   Clear
3:00 AM 60 °F 49 °F 58% 29.74 in 19 mi NNE 3.5 mph - -   Partly Cloudy
3:00 AM 60.8 °F 48.2 °F 63% 29.71 in - NNE 3.5 mph - N/A   Clear
3:30 AM 59.0 °F 48.2 °F 67% 29.74 in - North 4.6 mph - N/A   Clear
4:00 AM 57 °F 49 °F 66% 29.75 in - North 2.3 mph - -  
4:00 AM 57.2 °F 48.2 °F 72% 29.74 in - North 2.3 mph - N/A   Clear
4:30 AM 57.2 °F 50.0 °F 77% 29.74 in - West 4.6 mph - N/A   Clear
5:00 AM 55.4 °F 48.2 °F 77% 29.77 in - North 5.8 mph - N/A   Clear
5:30 AM 59.0 °F 48.2 °F 67% 29.77 in - NW 8.1 mph - N/A   Clear
6:00 AM 57 °F 49 °F 65% 29.79 in 19 mi West 8.1 mph - -   Partly Cloudy
6:00 AM 57.2 °F 48.2 °F 72% 29.77 in - West 8.1 mph - N/A   Clear
6:30 AM 59.0 °F 50.0 °F 72% 29.80 in - West 5.8 mph - N/A   Clear
7:00 AM 62 °F 52 °F 61% 29.81 in - WSW 5.8 mph - -  
7:00 AM 62.6 °F 51.8 °F 68% 29.80 in - WSW 5.8 mph - N/A   Clear
7:30 AM 66.2 °F 50.0 °F 56% 29.83 in - NW 5.8 mph - N/A   Clear
8:00 AM 69.8 °F 50.0 °F 49% 29.83 in - WNW 9.2 mph - N/A   Clear
8:30 AM 71.6 °F 46.4 °F 41% 29.83 in - WNW 12.7 mph - N/A   Clear
9:00 AM 73 °F 48 °F 30% 29.85 in 19 mi WNW 11.5 mph - -   Partly Cloudy
9:00 AM 73.4 °F 48.2 °F 41% 29.83 in - WNW 11.5 mph - N/A   Clear
9:30 AM 75.2 °F 48.2 °F 38% 29.83 in - WNW 10.4 mph - N/A   Clear
10:00 AM 76 °F 46 °F 23% 29.83 in - WNW 10.4 mph - -  
10:00 AM 75.2 °F 46.4 °F 36% 29.83 in - WNW 10.4 mph - N/A   Clear
10:30 AM 77.0 °F 42.8 °F 29% 29.80 in 6.2 mi WNW 10.4 mph - N/A   Partly Cloudy
11:00 AM 78.8 °F 42.8 °F 28% 29.80 in 6.2 mi West 16.1 mph - N/A   Partly Cloudy
11:30 AM 78.8 °F 44.6 °F 30% 29.80 in 6.2 mi NNW 13.8 mph - N/A   Partly Cloudy
12:00 PM 80 °F 42 °F 16% 29.79 in 19 mi WNW 12.7 mph - -   Partly Cloudy
12:00 PM 80.6 °F 41.0 °F 24% 29.77 in 6.2 mi WNW 12.7 mph - N/A   Partly Cloudy
12:30 PM 80.6 °F 42.8 °F 26% 29.77 in 6.2 mi West 18.4 mph - N/A   Partly Cloudy
1:00 PM 80 °F 44 °F 17% 29.76 in - NW 15.0 mph - -  
1:00 PM 80.6 °F 42.8 °F 26% 29.74 in 6.2 mi NW 15.0 mph - N/A   Partly Cloudy
1:30 PM 82.4 °F 46.4 °F 28% 29.74 in 6.2 mi NNW 17.3 mph - N/A   Partly Cloudy
2:00 PM 82.4 °F 42.8 °F 25% 29.71 in 6.2 mi NW 15.0 mph - N/A   Partly Cloudy
2:30 PM 82.4 °F 44.6 °F 26% 29.71 in 6.2 mi NNW 13.8 mph - N/A   Partly Cloudy
3:00 PM 83 °F 42 °F 14% 29.71 in 19 mi NW 13.8 mph - -   Partly Cloudy
3:00 PM 82.4 °F 42.8 °F 25% 29.71 in - NW 13.8 mph - N/A   Clear
3:30 PM 78.8 °F 53.6 °F 42% 29.71 in - North 13.8 mph - N/A   Clear
4:00 PM 76 °F 53 °F 34% 29.72 in - North 16.1 mph - -  
4:00 PM 77.0 °F 53.6 °F 44% 29.71 in - North 16.1 mph - N/A   Clear
4:30 PM 75.2 °F 57.2 °F 53% 29.71 in - North 17.3 mph - N/A   Clear
5:00 PM 73.4 °F 59.0 °F 61% 29.71 in - North 13.8 mph - N/A   Clear
5:30 PM 71.6 °F 60.8 °F 69% 29.74 in - North 12.7 mph - N/A   Clear
6:00 PM 70 °F 62 °F 69% 29.76 in 19 mi North 10.4 mph - -   Partly Cloudy
6:00 PM 69.8 °F 62.6 °F 78% 29.74 in - North 10.4 mph - N/A   Clear
6:30 PM 69.8 °F 64.4 °F 83% 29.77 in - North 11.5 mph - N/A   Clear
7:00 PM 69 °F 65 °F 84% 29.78 in - North 9.2 mph - -  
7:00 PM 69.8 °F 64.4 °F 83% 29.77 in - North 9.2 mph - N/A   Clear
7:30 PM 69.8 °F 66.2 °F 88% 29.80 in - North 9.2 mph - N/A   Clear
8:00 PM 69.8 °F 66.2 °F 88% 29.80 in - North 8.1 mph - N/A   Clear
8:30 PM 69.8 °F 68.0 °F 94% 29.80 in - North 9.2 mph - N/A   Clear
9:00 PM 70 °F 68 °F 90% 29.82 in 19 mi North 10.4 mph - -   Partly Cloudy
9:00 PM 69.8 °F 68.0 °F 94% 29.80 in - North 10.4 mph - N/A   Clear
9:30 PM 69.8 °F 68.0 °F 94% 29.83 in - North 8.1 mph - N/A   Clear
10:00 PM 66 °F 65 °F 94% 29.83 in - WNW 6.9 mph - -  
10:00 PM 66.2 °F 64.4 °F 94% 29.83 in - WNW 6.9 mph - N/A   Clear
10:30 PM 66.2 °F 64.4 °F 94% 29.83 in - West 1.2 mph - N/A   Clear
11:00 PM 64.4 °F 62.6 °F 94% 29.83 in - North 4.6 mph - N/A   Clear
11:30 PM 64.4 °F 62.6 °F 94% 29.83 in - North 4.6 mph - N/A   Clear